Content
SEND FEEDBACK

Daily
Averages
Monthly
Summary
United States of America

POTTS JUNCTION, GUAM


Home > North America > United States > Guam
Elevation: 360 feet     Latitude: 13 33N     Longitude: 144 50E

WEATHER
 
SELECT A DAY
Number of Records: 213,081;   Date Range: 1/1/95 - 9/30/14
 
SHARE

PRINT THIS DATA

[ ← Previous Day ]
WEATHER ALMANAC - JULY 11, 2013
[ Next Day → ]
[ °C ]   °F
Weather ElementAverageHighLow
Temperature86.9 °F91.4 °F (12:42 pm)82 °F (4:54 am)
Dewpoint75 °F77 °F (9:54 pm)73 °F (3:54 pm)
Humidity68.1 %82 % (11:54 pm)55 % (3:54 pm)
Barometer29.83 in29.87 in (9:54 pm)29.79 in (3:54 pm)
Wind Speed9.5 mph16.1 mph (12:42 pm)
Wind Gust20.7 mph (1:54 pm)
Weather ElementAverage
Visibility9.8 mi
Wind DirectionENE (81.7 °)

Weather ElementTotal
Precipitation---
Cooling Degree Days21.7 (Base 65)
Growing Degree Days36.7 (Base 50)
Averaged from 23 records on July 11, 2013
WEATHER CONDITIONS BREAKOUT
WIND DIRECTION BREAKOUT
WEATHER BY HOUR - JULY 11, 2013
[ °C ]   °F
Local TimeTemperatureDewpointHumidityBarometerVisibilityWind DirectionWind SpeedGust SpeedPrecipitationEventsConditions
1:54 AM82.9 °F75.0 °F77 %29.82 in10.0 miESE (120°)6.9 mphClear
2:54 AM82.9 °F75.0 °F77 %29.81 in10.0 miEast (90°)5.8 mphClear
3:54 AM82.9 °F75.0 °F77 %29.82 in10.0 miEast (100°)4.6 mphClear
4:54 AM82.0 °F75.0 °F79 %29.82 in10.0 miEast (90°)4.6 mphClear
5:54 AM82.9 °F75.0 °F77 %29.83 in10.0 miEast (80°)5.8 mphClear
6:54 AM84.0 °F75.0 °F74 %29.85 in10.0 miEast (90°)5.8 mphClear
9:54 AM89.1 °F75.0 °F63 %29.86 in10.0 miEast (90°)11.5 mphScattered Clouds
10:54 AM90.0 °F75.0 °F61 %29.85 in10.0 miEast (80°)11.5 mphScattered Clouds
11:54 AM91.0 °F75.0 °F59 %29.83 in10.0 miEast (80°)13.8 mph18.4 mphScattered Clouds
12:34 PM89.6 °F75.2 °F62 %29.85 in10.0 miEast (90°)13.8 mphMostly Cloudy
12:42 PM91.4 °F75.2 °F59 %29.84 in10.0 miENE (70°)16.1 mph19.6 mphScattered Clouds
12:54 PM91.0 °F75.0 °F59 %29.82 in10.0 miEast (90°)10.4 mphScattered Clouds
1:54 PM91.0 °F75.0 °F59 %29.81 in10.0 miEast (100°)13.8 mph20.7 mphPartly Cloudy
2:54 PM91.0 °F73.9 °F57 %29.80 in10.0 miEast (90°)15.0 mphScattered Clouds
3:54 PM91.0 °F73.0 °F55 %29.79 in10.0 miEast (80°)10.4 mph19.6 mphPartly Cloudy
4:54 PM89.1 °F73.0 °F59 %29.79 in10.0 miENE (60°)12.7 mphPartly Cloudy
5:54 PM88.0 °F73.9 °F63 %29.81 in10.0 miENE (70°)9.2 mphClear
6:54 PM86.0 °F75.0 °F70 %29.83 in10.0 miEast (80°)8.1 mphClear
7:54 PM84.9 °F75.9 °F74 %29.85 in10.0 miEast (80°)5.8 mphClear
8:54 PM86.0 °F75.0 °F70 %29.86 in10.0 miENE (70°)6.9 mphClear
9:54 PM84.0 °F77.0 °F79 %29.87 in10.0 miENE (60°)8.1 mph0.00 inPartly Cloudy
10:54 PM84.9 °F75.9 °F74 %29.87 in10.0 miENE (70°)6.9 mphClear
11:54 PM82.0 °F75.9 °F82 %29.86 in5.0 miNE (50°)11.5 mph19.6 mph0.00 inRainHeavy Rain
Hourly data recorded from PGUM, located miles away from Potts Junction, Guam







STORIES FROM OUR PARTNERS